Location: Ecklingerode
(51.5036°N, 10.3122°E)
Time: 14:48:58
(UTC+00:00)

Cosmos 2058 Rocket - Pass Details

Date: 29 October 2020
Orbit: 610 x 640 km, 82.5° (Epoch: 28 November)

Event Time Altitude Azimuth Distance (km) Brightness Sun altitude
Rises 16:41:07 0° 167° (SSE) 2,923 6.5 -7.5°
Reaches altitude 10° 16:43:27 10° 160° (SSE) 2,022 5.6 -7.8°
Maximum altitude 16:47:37 39° 92° (E) 963 3.6 -8.5°
Drops below altitude 10° 16:51:50 10° 24° (NNE) 2,044 5.4 -9.1°
Sets 16:54:11 0° 17° (NNE) 2,959 6.3 -9.5°
